$Date,$Time,DM0201B,DM0203B,DM0205B,DM0207B,DM0209B
10/01/98,00:00:01,383,161,-11,74,955
10/01/98,00:05:01,415,174,-11,76,955
10/01/98,00:10:01,462,164,-11,78,955
10/01/98,00:15:01,443,164,-11,78,955
10/01/98,00:20:01,324,164,-11,80,955
10/01/98,00:25:01,464,164,-11,82,955
10/01/98,00:30:01,399,164,-11,90,955
10/01/98,00:35:01,405,164,-10,90,955
10/01/98,00:40:01,376,174,-11,88,955
10/01/98,00:45:01,381,171,-11,86,955
10/01/98,00:50:01,416,161,-11,88,955
10/01/98,00:55:01,451,171,-11,88,955
10/01/98,01:00:01,447,171,-11,90,955
10/01/98,01:05:01,548,171,-12,92,955
10/01/98,01:10:01,533,171,-12,96,955
10/01/98,01:15:01,559,171,-12,102,955
10/01/98,01:20:01,530,171,-12,114,955
10/01/98,01:25:01,508,171,-12,125,955
10/01/98,01:30:01,582,171,-12,129,955
10/01/98,01:35:01,597,171,-13,125,955
10/01/98,01:40:01,607,171,-13,129,955
10/01/98,01:45:01,581,171,-13,140,955
10/01/98,01:50:01,588,171,-13,150,955
10/01/98,01:55:01,637,171,-13,154,955
10/01/98,02:00:01,661,171,-13,166,955
10/01/98,02:05:01,646,171,-13,181,955
10/01/98,02:10:01,665,160,-13,200,955
10/01/98,02:15:01,666,171,-12,222,955
10/01/98,02:20:01,652,169,-12,236,955
10/01/98,02:25:01,615,169,-12,250,955
10/01/98,02:30:01,615,169,-12,273,955
10/01/98,02:35:01,692,169,-12,270,955
10/01/98,02:40:01,685,157,-11,270,955
10/01/98,02:45:01,716,168,-12,273,955
10/01/98,02:50:01,668,168,-12,257,955
10/01/98,02:55:01,709,168,-11,251,955
10/01/98,03:00:01,678,169,-11,172,955
10/01/98,03:05:01,632,169,-11,142,955
10/01/98,03:10:01,615,169,-12,150,955
10/01/98,03:15:01,678,159,-12,121,955
10/01/98,03:20:01,571,159,-12,192,955
10/01/98,03:25:01,621,172,-12,112,955
10/01/98,03:30:01,613,161,-12,112,955
10/01/98,03:35:01,587,163,-12,123,955
10/01/98,03:40:01,493,153,-12,125,955
10/01/98,03:45:01,592,157,-12,97,955
10/01/98,03:50:01,566,169,-12,93,955
10/01/98,03:55:01,569,169,-12,87,955
10/01/98,04:00:01,554,169,-12,89,955
10/01/98,04:05:01,503,169,-12,93,955
10/01/98,04:10:01,452,159,-12,93,955
10/01/98,04:15:01,519,162,-12,101,955
10/01/98,04:20:01,460,152,-12,105,955
10/01/98,04:25:01,495,155,-12,119,955
10/01/98,04:30:01,438,155,-12,132,955
10/01/98,04:35:01,398,160,-12,138,955
10/01/98,04:40:01,445,169,-11,130,955
10/01/98,04:45:01,508,159,-11,126,955
10/01/98,04:50:01,582,159,-11,120,955
10/01/98,04:55:01,545,159,-11,116,955
10/01/98,05:00:01,534,169,-11,116,955
10/01/98,05:05:01,497,169,-11,122,955
10/01/98,05:10:01,503,169,-11,128,955
10/01/98,05:15:01,531,170,-10,126,955
10/01/98,05:20:01,473,170,-9,120,955
10/01/98,05:25:01,492,170,-9,116,955
10/01/98,05:30:01,513,170,-10,114,955
10/01/98,05:35:01,510,170,-10,116,955
10/01/98,05:40:01,464,170,-11,110,955
10/01/98,05:45:01,477,168,-11,100,955
10/01/98,05:50:01,421,179,-11,90,957
10/01/98,05:55:01,280,179,-11,78,957
10/01/98,06:00:01,244,169,-11,72,957
10/01/98,06:05:01,195,179,-11,64,957
10/01/98,06:10:01,265,169,-11,58,957
10/01/98,06:15:01,274,169,-11,54,957
10/01/98,06:20:01,341,169,-12,52,957
10/01/98,06:25:01,358,169,-12,50,957
10/01/98,06:30:01,313,178,-12,46,957
10/01/98,06:35:01,231,178,-12,48,957
10/01/98,06:40:01,279,192,-12,50,957
10/01/98,06:45:01,308,178,-12,52,957
10/01/98,06:50:01,268,182,-12,52,957
10/01/98,06:55:01,212,193,-12,44,957
10/01/98,07:00:01,254,201,-12,42,957
10/01/98,07:05:01,292,187,-13,32,957
10/01/98,07:10:01,339,187,-13,28,957
10/01/98,07:15:01,345,187,-13,24,957
10/01/98,07:20:01,299,187,-13,22,957
10/01/98,07:25:01,305,177,-14,18,957
10/01/98,07:30:01,318,187,-14,16,957
10/01/98,07:35:01,355,187,-14,12,957
10/01/98,07:40:01,283,187,-14,10,957
10/01/98,07:45:01,280,187,-14,10,957
10/01/98,07:50:01,264,187,-14,8,957
10/01/98,07:55:01,259,187,-14,8,957
10/01/98,08:00:01,261,187,-14,6,957
10/01/98,08:05:01,268,187,-14,6,957
10/01/98,08:10:01,174,164,-14,6,957
10/01/98,08:15:01,165,149,-14,4,957
10/01/98,08:20:01,127,174,-14,4,957
10/01/98,08:25:01,79,186,-14,2,957
10/01/98,08:30:01,96,174,-14,2,957
10/01/98,08:35:01,82,176,-14,0,957
10/01/98,08:40:01,114,159,-14,0,957
10/01/98,08:45:01,146,159,-14,0,957
10/01/98,08:50:01,108,159,-14,0,957
10/01/98,08:55:01,69,147,-14,0,957
10/01/98,09:00:01,50,135,-14,0,957
10/01/98,09:05:01,65,145,-14,0,957
10/01/98,09:10:01,51,120,-14,0,957
10/01/98,09:15:01,62,94,-14,0,957
10/01/98,09:20:01,51,91,-14,0,957
10/01/98,09:25:01,43,133,-14,0,957
10/01/98,09:30:01,1,71,-14,0,957
10/01/98,09:35:01,4,165,-14,0,957
10/01/98,09:40:01,72,192,-14,0,957
10/01/98,09:45:01,82,187,-14,0,957
10/01/98,09:50:01,82,129,-14,0,957
10/01/98,09:55:01,105,169,-14,0,957
10/01/98,10:00:01,107,176,-14,0,957
10/01/98,10:05:01,139,185,-14,0,957
10/01/98,10:10:01,161,152,-14,0,957
10/01/98,10:15:01,211,172,-14,0,957
10/01/98,10:20:01,251,175,-13,0,957
10/01/98,10:25:01,240,174,-13,0,957
10/01/98,10:30:01,217,163,-13,0,957
10/01/98,10:35:01,232,175,-13,0,957
10/01/98,10:40:01,198,186,-13,0,957
10/01/98,10:45:01,225,176,-13,0,957
10/01/98,10:50:01,174,153,-14,0,957
10/01/98,10:55:01,55,146,-14,0,957
10/01/98,11:00:01,2,126,-14,0,957
10/01/98,11:05:01,13,48,-15,0,957
10/01/98,11:10:01,112,207,-15,0,957
10/01/98,11:15:01,91,197,-15,0,957
10/01/98,11:20:01,30,156,-15,0,957
10/01/98,11:25:01,33,211,-15,0,957
10/01/98,11:30:01,64,202,-14,0,957
10/01/98,11:35:01,55,194,-14,0,957
10/01/98,11:40:01,97,216,-14,0,957
10/01/98,11:45:01,182,225,-13,0,957
10/01/98,11:50:01,113,227,-13,0,957
10/01/98,11:55:01,55,241,-13,0,957
10/01/98,12:00:01,39,309,-14,0,957
10/01/98,12:05:01,16,298,-15,0,957
10/01/98,12:10:01,20,214,-14,0,957
10/01/98,12:15:01,0,245,-14,0,957
10/01/98,12:20:01,39,163,-15,0,957
10/01/98,12:25:01,43,178,-14,0,957
10/01/98,12:30:01,61,194,-14,0,957
10/01/98,12:35:01,102,189,-14,0,957
10/01/98,12:40:01,72,191,-14,0,957
10/01/98,12:45:01,149,199,-14,0,957
10/01/98,12:50:01,115,208,-14,0,957
10/01/98,12:55:01,173,194,-14,0,957
10/01/98,13:00:01,200,185,-13,0,957
10/01/98,13:05:01,126,199,-13,0,957
10/01/98,13:10:01,137,188,-13,0,957
10/01/98,13:15:01,62,259,-14,0,957
10/01/98,13:20:01,64,234,-14,0,957
10/01/98,13:25:01,76,259,-14,0,957
10/01/98,13:30:01,87,248,-15,0,957
10/01/98,13:35:01,122,221,-15,0,957
10/01/98,13:40:01,132,221,-14,0,957
10/01/98,13:45:01,144,214,-14,0,957
10/01/98,13:50:01,155,219,-15,0,957
10/01/98,13:55:01,108,209,-15,0,957
10/01/98,14:00:01,148,208,-15,0,957
10/01/98,14:05:01,167,208,-15,0,957
10/01/98,14:10:01,157,208,-15,0,957
10/01/98,14:15:01,146,208,-15,0,957
10/01/98,14:20:01,126,208,-15,0,957
10/01/98,14:25:01,108,209,-15,0,957
10/01/98,14:30:01,114,219,-15,0,957
10/01/98,14:35:01,144,209,-14,0,957
10/01/98,14:40:01,170,209,-14,0,957
10/01/98,14:45:01,130,209,-15,0,957
10/01/98,14:50:01,160,209,-14,0,957
10/01/98,14:55:01,165,209,-14,0,957
10/01/98,15:00:01,173,210,-14,0,957
10/01/98,15:05:01,162,210,-14,0,957
10/01/98,15:10:01,159,212,-14,0,957
10/01/98,15:15:01,170,202,-14,0,957
10/01/98,15:20:01,161,202,-14,0,957
10/01/98,15:25:01,171,202,-14,0,957
10/01/98,15:30:01,142,202,-15,0,957
10/01/98,15:35:01,131,202,-14,0,957
10/01/98,15:40:01,144,202,-14,0,955
10/01/98,15:45:01,140,199,-14,0,955
10/01/98,15:50:01,119,187,-15,0,955
10/01/98,15:55:01,120,177,-15,0,955
10/01/98,16:00:01,106,197,-15,0,955
10/01/98,16:05:01,105,197,-15,0,955
10/01/98,16:10:01,99,183,-14,0,955
10/01/98,16:15:01,114,194,-14,0,955
10/01/98,16:20:01,98,194,-14,0,955
10/01/98,16:25:01,66,194,-14,0,955
10/01/98,16:30:01,56,194,-14,0,955
10/01/98,16:35:01,34,194,-14,0,955
10/01/98,16:40:01,13,184,-14,0,955
10/01/98,16:45:01,12,139,-14,0,955
10/01/98,16:50:01,34,32,-14,0,955
10/01/98,16:55:01,4,55,-14,0,955
10/01/98,17:00:01,36,1,-13,0,955
10/01/98,17:05:01,45,27,-13,0,955
10/01/98,17:10:01,69,359,-13,0,955
10/01/98,17:15:01,37,1,-13,2,955
10/01/98,17:20:01,37,4,-13,2,955
10/01/98,17:25:01,37,4,-13,2,955
10/01/98,17:30:01,61,4,-13,2,955
10/01/98,17:35:01,40,358,-13,4,955
10/01/98,17:40:01,20,358,-13,4,955
10/01/98,17:45:01,1,358,-13,6,955
10/01/98,17:50:01,28,7,-13,6,955
10/01/98,17:55:01,17,18,-13,6,955
10/01/98,18:00:01,5,32,-13,8,955
10/01/98,18:05:01,5,32,-13,8,955
10/01/98,18:10:01,5,20,-13,10,955
10/01/98,18:15:01,29,305,-13,14,955
10/01/98,18:20:01,29,305,-13,24,955
10/01/98,18:25:01,18,305,-13,30,955
10/01/98,18:30:01,18,272,-13,32,955
10/01/98,18:35:01,31,262,-13,34,955
10/01/98,18:40:01,15,248,-13,36,955
10/01/98,18:45:01,17,267,-13,40,955
10/01/98,18:50:01,7,259,-13,42,955
10/01/98,18:55:01,34,259,-13,46,955
10/01/98,19:00:01,34,245,-12,48,955
10/01/98,19:05:01,28,220,-12,52,955
10/01/98,19:10:01,34,210,-12,56,955
10/01/98,19:15:01,34,210,-12,58,955
10/01/98,19:20:01,24,224,-12,62,955
10/01/98,19:25:01,36,213,-12,66,955
10/01/98,19:30:01,35,213,-12,68,955
10/01/98,19:35:01,25,213,-12,72,955
10/01/98,19:40:01,24,201,-13,76,955
10/01/98,19:45:01,22,213,-13,80,955
10/01/98,19:50:01,22,213,-13,82,955
10/01/98,19:55:01,22,203,-13,86,955
10/01/98,20:00:01,24,191,-13,90,955
10/01/98,20:05:01,12,191,-13,92,955
10/01/98,20:10:01,2,191,-13,98,955
10/01/98,20:15:01,12,254,-13,100,955
10/01/98,20:20:01,2,254,-13,102,955
10/01/98,20:25:01,17,254,-13,106,955
10/01/98,20:30:01,23,241,-14,110,955
10/01/98,20:35:01,35,241,-14,112,955
10/01/98,20:40:01,46,229,-14,116,955
10/01/98,20:45:01,36,219,-14,118,955
10/01/98,20:50:01,35,234,-14,122,955
10/01/98,20:55:01,14,254,-14,128,955
10/01/98,21:00:01,25,278,-14,134,955
10/01/98,21:05:01,15,278,-14,134,955
10/01/98,21:10:01,4,278,-14,136,955
10/01/98,21:15:01,4,210,-14,130,955
10/01/98,21:20:01,17,200,-14,138,955
10/01/98,21:25:01,17,173,-14,140,955
10/01/98,21:30:01,27,195,-14,150,955
10/01/98,21:35:01,11,195,-14,154,955
10/01/98,21:40:01,11,177,-14,158,955
10/01/98,21:45:01,10,177,-14,160,955
10/01/98,21:50:01,0,177,-14,164,955
10/01/98,21:55:01,0,177,-14,166,955
10/01/98,22:00:01,0,177,-14,170,955
10/01/98,22:05:01,60,189,-14,172,955
10/01/98,22:10:01,35,185,-15,176,955
10/01/98,22:15:01,53,173,-15,180,955
10/01/98,22:20:01,69,185,-15,182,955
10/01/98,22:25:01,110,207,-15,186,955
10/01/98,22:30:01,117,192,-15,188,955
10/01/98,22:35:01,87,185,-15,191,955
10/01/98,22:40:01,122,185,-15,195,955
10/01/98,22:45:01,155,185,-15,199,955
10/01/98,22:50:01,138,182,-16,201,955
10/01/98,22:55:01,117,179,-16,205,955
10/01/98,23:00:01,118,167,-16,209,955
10/01/98,23:05:01,142,173,-16,211,955
10/01/98,23:10:01,153,173,-16,213,955
10/01/98,23:15:01,107,175,-16,215,955
10/01/98,23:20:01,71,160,-16,219,955
10/01/98,23:25:01,75,168,-16,221,955
10/01/98,23:30:01,68,170,-15,223,955
10/01/98,23:35:01,57,175,-15,225,955
10/01/98,23:40:01,95,178,-15,226,955
10/01/98,23:45:01,111,187,-16,228,955
10/01/98,23:50:01,148,177,-16,230,955
10/01/98,23:55:01,180,177,-16,232,955
10/02/98,00:00:01,158,161,-16,234,955
